Terminal Aerodrome Forecast
Issued by NWS Topeka, KS

Home | Current Version | Previous Version | Text Only | Print | Product List | Glossary Off
Versions: 1 2 3 4 5 6 7 8 9 10 11 12 13 14 15 16 17 18 19 20 21

000
FTUS43 KTOP 260932 AAB
TAFTOP
TAF AMD
KTOP 260932Z 2610/2706 12002KT P6SM SKC
      TEMPO 2611/2613 3SM BR=

USA.gov is the U.S. government's official web portal to all federal, state and local government web resources and services.